Location: Ariel
(45.9570°N, 122.5700°W)
Time: 18:45:31
(UTC-07:00)

Tiros 1 - Pass Details

Date: 28 July 2019
Orbit: 630 x 664 km, 48.4° (Epoch: 19 August)

Event Time Altitude Azimuth Distance (km) Brightness Sun altitude
Rises 11:38:20 0° 248° (WSW) 2,972 10.4 56.2°
Reaches altitude 10° 11:40:40 10° 248° (WSW) 2,067 9.7 56.5°
Maximum altitude 11:45:27 86° 161° (SSE) 668 8.6 57.0°
Drops below altitude 10° 11:50:17 10° 72° (ENE) 2,084 10.1 57.6°
Sets 11:52:38 0° 72° (ENE) 2,999 10.7 57.9°
